Flag Weather past 2 weeks in Currie, Tasmania, Australia

Now
52 °F

Cool.


Feels Like: 49 °F
Forecast: 54 / 58 °F
Wind: 8 mph from South

Location: King Island Airport

Current Time: Nov 27, 2014 at 7:47:59 AM

Latest Report: Nov 27, 2014 at 7:00 AM


Visibility: N/A

Pressure: 30.31 "Hg

Humidity: 71%

Dew point: 43 °F

Location of CurrieLocation

Historic Weather in Currie — Graph

°F

Currie temperature yesterday

Maximum temperature yesterday: 59 °F (at 1:00 PM)
Minimum temperature yesterday: 52 °F (at 11:00 PM)
Average temperature yesterday: 56 °F

Past Weeks' High & Low Weather Summary

 TemperatureHumidityPressure
High77 °F (Nov 22, 4:00 PM)98% (Nov 13, 7:00 AM)30.29 "Hg (Nov 13, 7:00 AM)
Low40 °F (Nov 12, 6:00 AM)42% (Nov 22, 4:00 PM)29.62 "Hg (Nov 20, 6:00 PM)
Average57 °F77%29.91 "Hg
* Reported Nov 12 6:00 AM — Nov 27 6:00 AM, Currie, Weather by CustomWeather, © 2014

Note: Actual official high and low records may vary slightly from our data, if they occured in-between our weather recording intervals... More about our weather records

Advertising

Currie weather history for previous 24 hours

 ConditionsComfort  
Time TempWeatherWind HumidityBarometerVisibility
6:00 AM
Nov 27
51 °FOvercast.7 mph73%30.29 "HgN/A
5:00 AM51 °FCool.7 mph71%30.28 "HgN/A
4:00 AM52 °FCool.6 mph72%30.26 "HgN/A
3:00 AM53 °FOvercast.7 mph71%30.25 "HgN/A
2:00 AM53 °FCool.8 mph70%30.26 "HgN/A
1:00 AM53 °FCool.8 mph68%30.27 "HgN/A
12:00 AM53 °FOvercast.8 mph68%30.27 "HgN/A
11:00 PM
Nov 26
52 °FCool.7 mph67%30.27 "HgN/A
10:00 PM54 °FCool.12 mph65%30.26 "HgN/A
9:00 PM54 °FOvercast.14 mph64%30.25 "HgN/A
8:00 PM54 °FCool.12 mph66%30.24 "HgN/A
7:00 PM55 °FCool.17 mph62%30.22 "HgN/A
6:00 PM57 °FOvercast.18 mph66%30.20 "HgN/A
5:00 PM57 °FCool.18 mph63%30.19 "HgN/A
4:00 PM59 °FRefreshingly cool.20 mph59%30.19 "HgN/A
3:00 PM58 °FRefreshingly cool.20 mph54%30.18 "HgN/A
1:00 PM59 °FCool.18 mph62%30.17 "HgN/A
12:00 PM58 °FOvercast.21 mph58%30.17 "HgN/A
11:00 AM58 °FCool.20 mph66%30.15 "HgN/A
10:00 AM58 °FCool.21 mph66%30.14 "HgN/A
9:00 AM56 °FOvercast.17 mph88%30.12 "HgN/A
8:00 AM55 °FCool.17 mph94%30.10 "HgN/A
7:00 AM55 °FCool.18 mph95%30.08 "HgN/A
Weather by CustomWeather, © 2014

See weather overviewHow to use our weather pages